C/2019 L3 ( ATLAS )

Japanese version
Home page
Updated on October 22, 2022

---------------------------------------------------------------------

* Profile

Discovery Date June 10, 2019
Magnitude 18.1 mag
Discoverer Asteroid Terrestrial-Impact Last Alert System (ATLAS) search program

* Pictures

* Orbital Elements

Epoch 2022 Aug. 9.0 TT = JDT 2459800.5
T 2022 Jan.  9.61835 TT                                 Rudenko
q   3.5544265            (2000.0)            P               Q
z  -0.0005071      Peri.  171.61007     -0.26046877     -0.66637177
 +/-0.0000002      Node   290.78799     +0.83677312     +0.20516944
e   1.0018026      Incl.   48.35648     +0.48162928     -0.71683622
From 5197 observations 2019 June 10-2022 Sept. 4, mean residual 0".4.

* Finding Charts

* Magnitudes Graph

        m1 = -2.2 + 5 log d + 17.0 log r(t - 70)

---------------------------------------------------------------------

The orbital elements are published on M.P.E.C. 2022-R139.
The charts are made with StellaNavigator Ver.10 (AstroArts).
The magnitudes graphs are made with Comet for Windows.

---------------------------------------------------------------------

Copyright(C) Seiichi Yoshida (comet@aerith.net). All rights reserved.